Regional Weather Roundup
Issued by NWS

Home | Current Version | Previous Version | Graphics & Text | Print | Product List | Glossary On
Versions: 1 2 3 4 5 6 7 8 9 10 11 12 13 14 15 16 17 18 19 20 21 22 23 24 25 26 27 28 29 30 31 32 33 34 35 36 37 38 39 40 41 42 43 44 45 46 47 48 49 50
000
ASUS43 KMPX 170910
RWRMN
WEATHER ROUNDUP FOR MINNESOTA
NATIONAL WEATHER SERVICE TWIN CITIES/CHANHASSEN MN
300 AM CST SUN DEC 17 2017


NOTE: "FAIR" INDICATES FEW OR NO CLOUDS BELOW 12,000 FEET WITH NO
SIGNIFICANT WEATHER AND/OR OBSTRUCTIONS TO VISIBILITY. N/A MEANS
CURRENT SKY AND/OR WEATHER CONDITIONS ARE NOT AVAILABLE.

MNZ060>063-068>070-171000-
   Twin Cities Metro

CITY           SKY/WX    TMP DP  RH WIND       PRES   REMARKS
TWIN CITIES    CLOUDY    19  17  92 N3        30.11R
ST PAUL        PTCLDY    20  16  84 CALM      30.13R
CRYSTAL        CLOUDY    20  14  77 CALM      30.11R
BLAINE         CLOUDY    21  18  86 CALM      30.11S
LAKEVILLE      CLOUDY    18  18 100 CALM      30.10R
EDEN PRAIRIE   CLEAR     20  16  84 CALM      30.10R
SOUTH ST PAUL  CLOUDY    19  16  89 CALM      30.12R
LAKE ELMO      CLOUDY    19  18  93 CALM      30.12S
$$
MNZ001>005-007-008-013>017-022>024-027-028-171000-
   Northwest Minnesota

CITY           SKY/WX    TMP DP  RH WIND       PRES   REMARKS
BEMIDJI        CLOUDY    23  22  97 SW3       30.04F FOG
HALLOCK        CLEAR     12  10  92 S7        29.99S WCI   2
ROSEAU         CLOUDY    18  14  86 S8        29.99S WCI   7
WARROAD        CLOUDY    16  12  86 CALM      30.00S
THIEF RVR FALL LGT SNOW  21  21 100 S9        30.03S FOG     WCI  11
CROOKSTON      CLOUDY    19  18  93 S6        30.05S FOG     WCI  11
FOSSTON        CLOUDY    23  21  93 S9        30.05F FOG     WCI  13
DETROIT LAKES  FOG       25  25 100 S3        30.07S VSB 1/4
MOORHEAD       CLOUDY    21  19  93 CALM      30.08S
PARK RAPIDS    CLOUDY    25  22  88 S3        30.05S
MAHNOMEN       FOG       25  24  96 SE6       30.05S VSB 3/4 WCI  18
$$
MNZ006-009>011-018-025>026-171000-
   North Central Minnesota

CITY           SKY/WX    TMP DP  RH WIND       PRES   REMARKS
BAUDETTE       CLOUDY    21  19  92 S12       30.00S WCI   9
FLAG ISLAND    CLOUDY    19  18  93 S5        29.98F WCI  13
INTL FALLS     CLOUDY    22  19  89 S5        30.03F WCI  16
WASKISH        CLOUDY    21  21 100 S5        30.04S WCI  15
BIG FORK       CLOUDY    21  19  93 S3        30.05F
LONGVILLE      CLOUDY    23  21  93 CALM      30.07S
GRAND RAPIDS   CLOUDY    21  19  92 S3        30.08F
CRANE LAKE     CLOUDY    19  18  93 S3        30.09S
ORR            CLOUDY    19  18  93 CALM      30.04S
COOK           CLOUDY    19  19 100 CALM      30.07S
WALKER         CLOUDY    24  22  96 SW6       30.05F WCI  16
$$
MNZ012-019>021-037-171000-
   Northeast Minnesota

CITY           SKY/WX    TMP DP  RH WIND       PRES   REMARKS
DULUTH         CLOUDY    20  17  88 W5        30.08S WCI  13
ELY            CLOUDY    19  18  93 SW5       30.07R WCI  13
HIBBING        CLOUDY    18  17  96 CALM      30.07S
EVELETH        CLOUDY    19  16  89 CALM      30.09S FOG
DULUTH HARBOR  CLOUDY    23  18  80 CALM      30.14S
TWO HARBORS    CLOUDY    25  18  74 CALM      30.08F
SILVER BAY     CLOUDY    21  19  93 CALM      30.08F
GRAND MARAIS     N/A     30  23  75 SW10      30.11F WCI  21
G MARAIS ARPRT CLOUDY    21  16  79 S3        30.04F
$$
MNZ029>031-032-039>041-046>048-054>057-064-171000-
   West Central Minnesota

CITY           SKY/WX    TMP DP  RH WIND       PRES   REMARKS
FERGUS FALLS   FOG       21  21 100 CALM      30.10S VSB<1/4
WHEATON        FOG       21  19  93 CALM      30.09S VSB 1
MORRIS         FOG       27  25  93 CALM      30.07S VSB<1/4
ALEXANDRIA     CLOUDY    27  26  96 SW3       30.07R FOG
ELBOW LAKE     SNOW      22  22  98 CALM      30.08R VSB 1/4
WADENA         CLOUDY    25  25 100 CALM      30.06S FOG
GLENWOOD       CLOUDY    27  27 100 CALM      30.08R FOG
APPLETON       MOCLDY    27  25  93 SE5       30.08S FOG     WCI  21
BENSON         CLOUDY    28  27  93 CALM      30.10S FOG
ORTONVILLE     FOG       25  23  93 CALM      30.07S VSB<1/4
MADISON        PTCLDY    27  27 100 SE6       30.09R FOG     WCI  20
WILLMAR        CLOUDY    27  25  93 CALM      30.11S FOG
$$
MNZ033>034-036-042>043-049>051-058-059-171000-
   Central Minnesota

CITY           SKY/WX    TMP DP  RH WIND       PRES   REMARKS
ST CLOUD       MOCLDY    18  16  92 S3        30.11R
SAUK CENTRE    CLOUDY    25  24  97 CALM      30.09R FOG
PAYNESVILLE    CLOUDY    24  24 100 CALM      30.10R
AITKIN         CLOUDY    21  18  86 CALM      30.07S
PINE RIVER     CLOUDY    23  21  93 CALM      30.10S FOG
BRAINERD       CLOUDY    24  22  91 CALM      30.07F FOG
STAPLES        CLOUDY    25  25 100 CALM      30.06S FOG
LONG PRAIRIE   CLOUDY    25  25 100 CALM      30.07S FOG
LITTLE FALLS   CLOUDY    23  19  86 CALM      30.09S
LITCHFIELD     CLOUDY    25  25 100 CALM      30.11R
BUFFALO        PTCLDY    20  17  88 CALM      30.12R
MAPLE LAKE     MOCLDY    21  19  93 CALM      30.12R
HUTCHINSON     PTCLDY    23  21  94 N3        30.11S
$$
MNZ037-044-045-052-053-171000-
   East Central Minnesota

CITY           SKY/WX    TMP DP  RH WIND       PRES   REMARKS
PRINCETON      MOCLDY    18  16  93 CALM      30.11R
MORA           CLOUDY    19  14  79 CALM      30.12R
CAMBRIDGE      MOCLDY    18  12  79 CALM      30.12R
RUSH CITY      CLOUDY    16  14  93 CALM      30.13R
MOOSE LAKE     CLOUDY    21  18  86 CALM      30.09S
HINCKLEY       PTSUNNY   19  18  93 CALM      30.10S
CLOQUET        CLOUDY    19  16  86 CALM      30.09S
MCGREGOR       CLOUDY    23  21  93 CALM      30.09S
$$
MNZ071>073-080-081-089-090-097-098-171000-
   Southwest Minnesota

CITY           SKY/WX    TMP DP  RH WIND       PRES   REMARKS
MONTEVIDEO     CLOUDY    27  27 100 CALM      30.10R
GRANITE FALLS  CLOUDY    25  23  93 N3        30.11F
CANBY          CLOUDY    27  26  96 CALM      30.09S FOG
MARSHALL       CLOUDY    24  23  96 CALM      30.08S
REDWOOD FALLS  CLOUDY    27  25  92 CALM      30.09S FOG
OLIVIA         CLOUDY    23  21  93 N3        30.08F FOG
PIPESTONE      CLOUDY    25  23  93 NE6       30.02F FOG     WCI  18
WINDOM         HAZE      27  16  63 N9        30.05R VSB 1/4 WCI  17
WORTHINGTON    SNOW      25  25 100 N13       30.04R VSB 1/4 WCI  13
JACKSON        FOG       27  25  93 N9        30.04R VSB 1/4 WCI  17
TRACY          CLOUDY    25  25 100 N5        30.07S FOG     WCI  19
SLAYTON        FOG       25  24  98 N8        30.05R VSB 1/4 WCI  16
$$
MNZ065>067-074>077-082>085-091>093-171000-
   South Central Minnesota

CITY           SKY/WX    TMP DP  RH WIND       PRES   REMARKS
MANKATO        CLOUDY    22  20  92 NE7       30.07F WCI  13
NEW ULM        CLOUDY    27  21  80 NE6       30.08S WCI  20
ST JAMES       CLOUDY    27  25  93 N7        30.08S FOG     WCI  19
FAIRMONT       CLOUDY    26  24  92 N9        30.06R FOG     WCI  17
GLENCOE        CLOUDY    23  23 100 CALM      30.10R FOG
FARIBAULT      CLOUDY    19  18  93 CALM      30.08F
OWATONNA       CLOUDY    19  18  93 CALM      30.06S
WASECA         CLOUDY    21  19  93 NE5       30.07F WCI  15
ALBERT LEA     CLOUDY    21  19  93 NE3       30.05R
$$
MNZ078>079-086>088-094>096-171000-
   Southeast Minnesota

CITY           SKY/WX    TMP DP  RH WIND       PRES   REMARKS
ROCHESTER      FOG       24  24 100 E7        30.06R VSB 1/4 WCI  16
RED WING       CLOUDY    25  19  80 E3        30.11R
STANTON        CLOUDY    20  17  90 CALM      30.08S
DODGE CENTER   FOG       21  19  93 NE7       30.06R VSB 1/2 WCI  13
WINONA         CLOUDY    30  28  93 E3        30.11S
AUSTIN         CLOUDY    21  19  93 NE5       30.05R FOG     WCI  15
PRESTON        FOG       26  24  95 E5        30.06R VSB 1/2 WCI  20
$$
ABBREVIATIONS USED IN REMARKS
   TC - TEMPERATURES IN CELSIUS
  WCI - WIND CHILL INDEX
   HX - HEAT INDEX
  VSB - VISIBILITY
$$




USA.gov is the U.S. government's official web portal to all federal, state and local government web resources and services.